Deer Park, WA
on Monday, December 3, 2012

Monday
Previous Day Next Day
Daily Summary
 ActualAverageRecord
Temperature
Mean Temperature °F / °C 28°F / -2°C  
Max Temperature 49°F / 9°C 34°F / 1°C 49°F / 9°C (2012)
Min Temperature 38°F / 3°C 21°F / -6°C 5°F / -15°C (2006)
Degree Days
Heating Degree Days 21 37  
Month to date heating degree days 68 111  
Since 1 July heating degree days 1805 2114  
Cooling Degree Days 0 0  
Month to date cooling degree days 0 0  
Year to date cooling degree days 232 187  
Moisture
Dew Point 35°F / 2°C   
Average Humidity 77    
Maximum Humidity 92    
Minimum Humidity 61    
Precipitation
Precipitation 0.01 in / 0.25 cm 0.09 in / 2.29 cm 1.35 in / 3.43 cm (2007)
Month to date precipitation 0.59 0.26  
Year to date precipitation 24.70 19.65  
Snow
Snow 0.00 in / 0.00 cm in / cm in / cm ()
Month to date snowfall  
Since 1 July snowfall  
Snow Depth in / cm   
Wind
Wind Speed 10 mph / 16 km/h   
Max Wind Speed 23 mph / 37 km/h   
Max Gust Speed 29 mph / 47 km/h   
Visibility 10 miles / 16 kilometers   
Events Rain   

Key: T is trace of precipitation, MM is missing value
Source: NWS Daily Summary
Time(PST)TemperatureDew PointHumidity Pressure Visibility Wind DirectionWind SpeedGust SpeedPrecipitationEvents Conditions
12:21 AM 39.2°F / 4.0°C 33.8°F / 1.0°C 81% 29.82 in / 1009.7 hPa 10.0 miles / 16.1 kilometers SSW 12.7 mph / 20.4 km/h - N/A   Overcast
12:53 AM 39.9°F / 4.4°C 34.0°F / 1.1°C 79% 29.86 in / 1010.9 hPa 10.0 miles / 16.1 kilometers SSW 16.1 mph / 25.9 km/h - N/A   Overcast
1:09 AM 41.0°F / 5.0°C 33.8°F / 1.0°C 76% 29.83 in / 1010.0 hPa 10.0 miles / 16.1 kilometers SSW 12.7 mph / 20.4 km/h - N/A   Overcast
1:53 AM 39.9°F / 4.4°C 34.0°F / 1.1°C 79% 29.88 in / 1011.6 hPa 10.0 miles / 16.1 kilometers SSW 9.2 mph / 14.8 km/h - N/A   Overcast
2:24 AM 41.0°F / 5.0°C 33.8°F / 1.0°C 76% 29.85 in / 1010.7 hPa 10.0 miles / 16.1 kilometers SSW 15.0 mph / 24.1 km/h - N/A   Overcast
2:53 AM 39.9°F / 4.4°C 34.0°F / 1.1°C 79% 29.88 in / 1011.8 hPa 10.0 miles / 16.1 kilometers SSW 11.5 mph / 18.5 km/h - 0.00 in / 0.0 cm Rain Light Rain
3:53 AM 41.0°F / 5.0°C 33.1°F / 0.6°C 73% 29.89 in / 1012.0 hPa 10.0 miles / 16.1 kilometers SSW 13.8 mph / 22.2 km/h - 0.00 in / 0.0 cm   Mostly Cloudy
4:53 AM 41.0°F / 5.0°C 33.1°F / 0.6°C 73% 29.91 in / 1012.7 hPa 10.0 miles / 16.1 kilometers SSW 11.5 mph / 18.5 km/h - N/A   Overcast
5:53 AM 39.9°F / 4.4°C 32.0°F / 0.0°C 73% 29.94 in / 1013.6 hPa 10.0 miles / 16.1 kilometers SW 11.5 mph / 18.5 km/h - N/A   Mostly Cloudy
7:53 AM 39.0°F / 3.9°C 33.1°F / 0.6°C 79% 29.96 in / 1014.4 hPa 10.0 miles / 16.1 kilometers SSW 13.8 mph / 22.2 km/h 25.3 mph / 40.7 km/h N/A   Clear
8:53 AM 42.1°F / 5.6°C 34.0°F / 1.1°C 73% 29.98 in / 1015.1 hPa 10.0 miles / 16.1 kilometers SSW 13.8 mph / 22.2 km/h - N/A   Partly Cloudy
9:53 AM 42.1°F / 5.6°C 34.0°F / 1.1°C 73% 30.01 in / 1016.3 hPa 10.0 miles / 16.1 kilometers SSW 15.0 mph / 24.1 km/h - N/A   Mostly Cloudy
10:53 AM 43.0°F / 6.1°C 35.1°F / 1.7°C 74% 30.03 in / 1016.8 hPa 10.0 miles / 16.1 kilometers SSW 12.7 mph / 20.4 km/h - N/A   Overcast
11:53 AM 46.0°F / 7.8°C 36.0°F / 2.2°C 68% 30.01 in / 1016.1 hPa 10.0 miles / 16.1 kilometers SSW 18.4 mph / 29.6 km/h 27.6 mph / 44.4 km/h N/A   Overcast
12:53 PM 48.0°F / 8.9°C 36.0°F / 2.2°C 63% 30.02 in / 1016.4 hPa 10.0 miles / 16.1 kilometers SW 17.3 mph / 27.8 km/h 21.9 mph / 35.2 km/h N/A   Overcast
1:53 PM 46.9°F / 8.3°C 37.0°F / 2.8°C 68% 30.02 in / 1016.5 hPa 10.0 miles / 16.1 kilometers SW 11.5 mph / 18.5 km/h - N/A   Overcast
2:53 PM 46.9°F / 8.3°C 37.0°F / 2.8°C 68% 30.04 in / 1017.2 hPa 10.0 miles / 16.1 kilometers SSW 10.4 mph / 16.7 km/h - N/A   Overcast
3:53 PM 46.0°F / 7.8°C 36.0°F / 2.2°C 68% 30.06 in / 1017.8 hPa 10.0 miles / 16.1 kilometers SSW 10.4 mph / 16.7 km/h - N/A   Overcast
4:53 PM 44.1°F / 6.7°C 37.0°F / 2.8°C 76% 30.07 in / 1018.1 hPa 10.0 miles / 16.1 kilometers South 6.9 mph / 11.1 km/h - N/A   Overcast
5:53 PM 43.0°F / 6.1°C 36.0°F / 2.2°C 76% 30.08 in / 1018.4 hPa 10.0 miles / 16.1 kilometers SSE 4.6 mph / 7.4 km/h - N/A   Scattered Clouds
6:53 PM 43.0°F / 6.1°C 36.0°F / 2.2°C 76% 30.08 in / 1018.5 hPa 10.0 miles / 16.1 kilometers SSE 5.8 mph / 9.3 km/h - N/A   Overcast
7:53 PM 41.0°F / 5.0°C 37.9°F / 3.3°C 89% 30.07 in / 1018.3 hPa 10.0 miles / 16.1 kilometers Calm Calm - 0.01 in / 0.3 cm Rain Light Rain
8:53 PM 41.0°F / 5.0°C 37.9°F / 3.3°C 89% 30.05 in / 1017.5 hPa 10.0 miles / 16.1 kilometers Calm Calm - 0.00 in / 0.0 cm   Overcast
10:53 PM 39.0°F / 3.9°C 37.0°F / 2.8°C 93% 30.00 in / 1015.9 hPa 10.0 miles / 16.1 kilometers Calm Calm - N/A   Overcast
11:53 PM 37.9°F / 3.3°C 37.0°F / 2.8°C 97% 29.95 in / 1014.2 hPa 10.0 miles / 16.1 kilometers NE 4.6 mph / 7.4 km/h - N/A   Mostly Cloudy
Moon Phase
Dec. 03 Dec. 06 Dec. 13 Dec. 20 Dec. 28
Sunrise:07:21 AM (PST) Moon Rise:09:02 PM (PST)12/3
Sunset:03:57 PM (PST) Moon Set:10:35 AM (PST)12/3

Copyright © 2014 The Weather Underground, Inc.